User: anonymous   Login
Location: Unspecified
(0.0000°N, 0.0000°E)
Time: 05:35:07
(UTC+00:00)
Language:

SAMSAT 218D - Orbit

View from above orbital plane
View from above orbital plane
View from above satellite
View from above satellite

Ground track
Ground track

The orbit data is extracted from the following two-line orbital elements,

1 41466U 16026C   18018.67784561  .00004244  00000-0  11812-3 0  9998
2 41466  97.2383 284.2695 0009747 155.7673 234.6217 15.37315900 96613
Epoch (UTC): 18 January 2018 16:16:05
Eccentricity: 0.0009747
inclination: 97.2383°
perigee height: 447 km
apogee height: 461 km
right ascension of ascending node: 284.2695°
argument of perigee: 155.7673°
revolutions per day: 15.37315900
mean anomaly at epoch: 234.6217°
orbit number at epoch: 9661

The dashed part of the orbit path shows where the satellite is in the earth's shadow,  

DLR